Date String (YYYY-MM-DD hh:mm:ss) UTC,Instrument flags,Ambient pressure (hPa),Sample flow (lpm),Bypass flow (lpm),Sample temperature (°C),Ambient temperature (°C),ASC tube jacket temperature (°C),LED temperature (°C),Box temperature (°C),Sample RH (%),Span deviation,Mass concentration (μg/m³),Mass concentration (μg/m³),Mass concentration (μg/m³)
DateTimeUTC,F1_M11,P_M11,Q1_M11,Q2_M11,T1_M11,T2_M11,T3_M11,T4_M11,T5_M11,U1_M11,ZSPAN_M11,X2_M11,X0_M11,X1_M11
2023-02-06 08:00:00,,0814.8,5.00,0.00,22.5,23.0,00.0,31.1,24.5,13.3,0000.0,0003.75,0007.72,0002.77
2023-02-06 08:01:00,,0814.9,5.04,0.00,22.5,22.6,00.0,31.2,24.5,13.2,0000.0,0003.74,0007.79,0002.77
2023-02-06 08:02:00,,0814.8,4.94,0.00,22.5,22.2,00.0,31.2,24.4,13.2,0000.0,0003.76,0007.79,0002.79
2023-02-06 08:03:00,,0815.1,5.06,0.00,22.5,21.9,00.0,31.3,24.3,13.2,0000.0,0003.78,0007.77,0002.80
2023-02-06 08:04:00,,0815.0,4.94,0.00,22.5,21.5,00.0,31.3,24.2,13.2,0000.0,0003.76,0007.74,0002.79
2023-02-06 08:05:00,,0814.9,5.06,0.00,22.5,21.3,00.0,31.3,24.2,13.1,0000.0,0003.74,0007.63,0002.78
2023-02-06 08:06:00,,0814.9,4.96,0.00,22.4,21.2,00.0,31.3,24.1,13.1,0000.0,0003.71,0007.48,0002.78
2023-02-06 08:07:00,,0814.8,5.05,0.00,22.4,21.1,00.0,31.3,24.0,13.2,0000.0,0003.67,0007.40,0002.80
2023-02-06 08:08:00,,0814.9,4.95,0.00,22.4,21.0,00.0,31.3,24.0,13.3,0000.0,0003.65,0007.44,0002.82
2023-02-06 08:09:00,,0814.8,5.05,0.00,22.4,20.9,00.0,31.3,24.0,13.4,0000.0,0003.65,0007.19,0002.82
2023-02-06 08:10:00,,0814.8,4.97,0.00,22.4,20.8,00.0,31.3,24.0,13.3,0000.0,0003.66,0007.30,0002.84
2023-02-06 08:11:00,,0814.8,4.98,0.00,22.3,20.8,00.0,31.3,24.0,13.3,0000.0,0003.68,0007.37,0002.85
2023-02-06 08:12:00,,0814.9,5.05,0.00,22.3,20.7,00.0,31.3,24.0,13.4,0000.0,0003.69,0007.28,0002.86
2023-02-06 08:13:00,,0814.8,4.97,0.00,22.3,20.7,00.0,31.3,23.9,13.5,0000.0,0003.68,0007.37,0002.87
2023-02-06 08:14:00,,0814.9,5.01,0.00,22.3,20.6,00.0,31.2,23.9,13.6,0000.0,0003.67,0007.32,0002.88
2023-02-06 08:15:00,,0815.0,5.00,0.00,22.2,20.6,00.0,31.2,23.9,13.6,0000.0,0003.67,0007.35,0002.91
2023-02-06 08:16:00,,0815.0,4.99,0.00,22.2,20.6,00.0,31.2,23.9,13.6,0000.0,0003.71,0007.48,0002.94
2023-02-06 08:17:00,,0814.6,5.01,0.00,22.2,20.6,00.0,31.2,23.9,13.4,0000.0,0003.75,0007.61,0002.96
2023-02-06 08:18:00,,0814.7,4.97,0.00,22.2,20.6,00.0,31.2,23.8,13.5,0000.0,0003.75,0007.59,0002.96
2023-02-06 08:19:00,,0814.8,5.04,0.00,22.2,20.5,00.0,31.2,23.8,13.6,0000.0,0003.76,0007.43,0002.97
2023-02-06 08:20:00,,0814.7,4.97,0.00,22.2,20.5,00.0,31.2,23.8,13.7,0000.0,0003.77,0007.38,0002.98
2023-02-06 08:21:00,,0814.6,5.04,0.00,22.2,20.9,00.0,31.1,23.9,13.8,0000.0,0003.80,0007.43,0002.98
2023-02-06 08:22:00,,0814.4,4.96,0.00,22.3,22.0,00.0,31.1,24.2,13.9,0000.0,0003.79,0007.32,0002.99
2023-02-06 08:23:00,,0814.4,5.00,0.00,22.4,22.9,00.0,31.1,24.5,13.7,0000.0,0003.80,0007.37,0003.00
2023-02-06 08:24:00,,0814.4,5.02,0.00,22.5,22.9,00.0,31.2,24.6,13.6,0000.0,0003.79,0007.34,0003.00
2023-02-06 08:25:00,,0814.3,4.99,0.00,22.5,22.4,00.0,31.2,24.5,13.7,0000.0,0003.79,0007.31,0002.99
2023-02-06 08:26:00,,0814.2,5.01,0.00,22.5,22.1,00.0,31.3,24.4,13.5,0000.0,0003.78,0007.38,0002.97
2023-02-06 08:27:00,,0814.2,4.98,0.00,22.5,21.8,00.0,31.3,24.3,13.3,0000.0,0003.76,0007.42,0002.96
2023-02-06 08:28:00,,0814.4,5.03,0.00,22.5,21.5,00.0,31.3,24.3,13.2,0000.0,0003.75,0008.00,0002.96
2023-02-06 08:29:00,,0814.5,4.97,0.00,22.5,21.4,00.0,31.3,24.2,13.1,0000.0,0003.73,0008.40,0002.96
2023-02-06 08:30:00,,0814.4,5.03,0.00,22.5,21.2,00.0,31.3,24.1,13.2,0000.0,0003.70,0008.37,0002.95
2023-02-06 08:31:00,,0814.3,4.98,0.00,22.5,21.1,00.0,31.3,24.1,13.5,0000.0,0003.68,0008.37,0002.94
2023-02-06 08:32:00,,0814.4,5.03,0.00,22.4,21.0,00.0,31.3,24.1,13.5,0000.0,0003.65,0008.42,0002.93
2023-02-06 08:33:00,,0814.4,4.96,0.00,22.4,20.9,00.0,31.3,24.1,13.4,0000.0,0003.64,0008.85,0002.91
2023-02-06 08:34:00,,0814.5,5.05,0.00,22.4,20.9,00.0,31.3,24.0,13.6,0000.0,0003.60,0008.69,0002.91
2023-02-06 08:35:00,,0814.4,4.96,0.00,22.4,20.8,00.0,31.3,24.0,13.5,0000.0,0003.56,0009.02,0002.89
2023-02-06 08:36:00,,0814.3,5.03,0.00,22.3,20.7,00.0,31.3,23.9,13.4,0000.0,0003.53,0009.02,0002.88
2023-02-06 08:37:00,,0814.2,4.97,0.00,22.3,20.7,00.0,31.3,23.9,13.5,0000.0,0003.54,0008.95,0002.88
2023-02-06 08:38:00,,0814.3,5.04,0.00,22.3,20.6,00.0,31.3,23.8,13.5,0000.0,0003.52,0008.78,0002.85
2023-02-06 08:39:00,,0814.4,4.96,0.00,22.2,20.6,00.0,31.3,23.9,13.4,0000.0,0003.51,0008.33,0002.83
2023-02-06 08:40:00,,0814.4,5.03,0.00,22.2,20.5,00.0,31.2,23.8,13.2,0000.0,0003.52,0007.89,0002.82
2023-02-06 08:41:00,,0814.2,4.96,0.00,22.2,20.5,00.0,31.2,23.7,12.9,0000.0,0003.55,0008.08,0002.84
2023-02-06 08:42:00,,0814.2,5.05,0.00,22.2,20.5,00.0,31.2,23.8,12.8,0000.0,0003.61,0008.23,0002.86
2023-02-06 08:43:00,,0814.2,4.96,0.00,22.2,20.5,00.0,31.2,23.8,12.8,0000.0,0003.64,0008.19,0002.89
2023-02-06 08:44:00,,0814.3,5.05,0.00,22.1,20.5,00.0,31.2,23.8,12.8,0000.0,0003.65,0007.73,0002.94
2023-02-06 08:45:00,,0814.4,4.98,0.00,22.2,21.3,00.0,31.1,24.0,12.8,0000.0,0003.68,0007.82,0002.95
2023-02-06 08:46:00,,0814.2,5.00,0.00,22.3,22.4,00.0,31.1,24.3,12.6,0000.0,0003.76,0007.75,0002.99
2023-02-06 08:47:00,,0814.2,5.00,0.00,22.4,23.0,00.0,31.2,24.5,12.2,0000.0,0003.82,0008.38,0003.02
2023-02-06 08:48:00,,0814.2,4.99,0.00,22.5,22.5,00.0,31.2,24.5,11.9,0000.0,0003.84,0008.57,0003.04
2023-02-06 08:49:00,,0814.1,4.98,0.00,22.5,22.1,00.0,31.3,24.4,12.1,0000.0,0003.90,0008.84,0003.09
2023-02-06 08:50:00,,0814.2,5.03,0.00,22.5,21.8,00.0,31.3,24.3,12.2,0000.0,0003.95,0008.93,0003.12
2023-02-06 08:51:00,,0814.0,4.97,0.00,22.5,21.6,00.0,31.3,24.2,12.2,0000.0,0003.97,0008.87,0003.13
2023-02-06 08:52:00,,0814.2,5.03,0.00,22.5,21.4,00.0,31.3,24.2,12.3,0000.0,0003.98,0008.82,0003.14
2023-02-06 08:53:00,,0814.1,4.98,0.00,22.4,21.2,00.0,31.3,24.2,12.1,0000.0,0003.98,0008.82,0003.15
2023-02-06 08:54:00,,0814.1,5.02,0.00,22.4,21.1,00.0,31.3,24.1,12.1,0000.0,0004.01,0008.82,0003.15
2023-02-06 08:55:00,,0814.1,4.97,0.00,22.4,21.0,00.0,31.3,24.1,12.1,0000.0,0004.05,0009.01,0003.14
2023-02-06 08:56:00,,0814.0,5.02,0.00,22.4,20.9,00.0,31.3,23.9,12.4,0000.0,0004.04,0009.62,0003.14
2023-02-06 08:57:00,,0814.0,5.00,0.00,22.4,20.9,00.0,31.3,24.0,12.7,0000.0,0004.03,0009.43,0003.14
2023-02-06 08:58:00,,0813.9,4.98,0.00,22.3,20.8,00.0,31.3,24.0,12.5,0000.0,0004.00,0008.91,0003.13
2023-02-06 08:59:00,,0814.2,5.03,0.00,22.3,20.7,00.0,31.3,24.0,12.5,0000.0,0004.03,0008.85,0003.14
